When you browse on this site, cookies collect data to enhance your experience and personalize the content and advertising you see.
Visit our Privacy Policy to learn more. By continuing to use the site, you agree to this use of cookies and data.
  • In Austria
  • List of Countries
  • For 7 days
  • Water Temperature
  • Weather Map
  • News
  • Weather Widgets
  • user-avatar
    Login

    Hourly Weather La Massana

    Today, 9 December, Monday

    Time Temperature Precipitation Wind Pressure Humidity
    00:00 -1°C° 0 mm 2 mps 610 mmHg 86%
    01:00 -2°C° 0 mm 2 mps 610 mmHg 74%
    02:00 -2°C° 0 mm 2 mps 609 mmHg 63%
    03:00 -3°C° 0 mm 2 mps 609 mmHg 52%
    04:00 -3°C° 0 mm 2 mps 609 mmHg 56%
    05:00 -3°C° 0 mm 2 mps 609 mmHg 60%
    06:00 -4°C° 0 mm 2 mps 608 mmHg 63%
    07:00 -3°C° 0.2 mm 2 mps 609 mmHg 68%
    08:00 -2°C° 0.2 mm 3 mps 609 mmHg 73%
    09:00 -1°C° 0.2 mm 3 mps 610 mmHg 78%
    10:00 -1°C° 1 mm 3 mps 610 mmHg 79%
    11:00 -2°C° 1 mm 4 mps 610 mmHg 79%
    12:00 -1°C° 1 mm 4 mps 610 mmHg 79%
    13:00 -2°C° 0.8 mm 4 mps 610 mmHg 80%
    14:00 -2°C° 0.8 mm 4 mps 610 mmHg 82%
    15:00 -3°C° 0.8 mm 4 mps 609 mmHg 83%
    16:00 -3°C° 1.2 mm 4 mps 610 mmHg 87%
    17:00 -4°C° 1.2 mm 4 mps 610 mmHg 91%
    18:00 -4°C° 1.2 mm 4 mps 610 mmHg 95%
    19:00 -5°C° 0.9 mm 4 mps 610 mmHg 94%
    20:00 -5°C° 0.9 mm 4 mps 610 mmHg 93%
    21:00 -5°C° 0.9 mm 4 mps 611 mmHg 92%
    22:00 -5°C° 0.5 mm 4 mps 611 mmHg 91%
    23:00 -5°C° 0.5 mm 4 mps 611 mmHg 90%

    Tomorrow, 10 December, Tuesday

    Time Temperature Precipitation Wind Pressure Humidity
    00:00 -7°C° 0.5 mm 4 mps 611 mmHg 88%
    01:00 -7°C° 0.1 mm 4 mps 611 mmHg 87%
    02:00 -7°C° 0.1 mm 4 mps 611 mmHg 86%
    03:00 -8°C° 0.1 mm 4 mps 610 mmHg 85%
    04:00 -8°C° 0 mm 4 mps 610 mmHg 81%
    05:00 -8°C° 0 mm 4 mps 610 mmHg 76%
    06:00 -8°C° 0 mm 4 mps 610 mmHg 72%
    07:00 -6°C° 0 mm 3 mps 611 mmHg 65%
    08:00 -5°C° 0 mm 3 mps 612 mmHg 58%
    09:00 -2°C° 0 mm 3 mps 612 mmHg 52%
    10:00 -1°C° 0 mm 3 mps 613 mmHg 54%
    11:00 +2°C° 0 mm 2 mps 613 mmHg 56%
    12:00 +3°C° 0 mm 2 mps 613 mmHg 58%
    13:00 +3°C° 0 mm 2 mps 613 mmHg 60%
    14:00 +3°C° 0 mm 1 mps 612 mmHg 62%
    15:00 +3°C° 0 mm 1 mps 611 mmHg 64%
    16:00 +1°C° 0 mm 2 mps 611 mmHg 59%
    17:00 -2°C° 0 mm 2 mps 610 mmHg 54%
    18:00 -3°C° 0 mm 2 mps 609 mmHg 49%
    19:00 -3°C° 0 mm 2 mps 609 mmHg 47%
    20:00 -2°C° 0 mm 2 mps 609 mmHg 46%
    21:00 -2°C° 0 mm 2 mps 609 mmHg 44%
    22:00 -2°C° 0 mm 2 mps 609 mmHg 43%
    23:00 -2°C° 0 mm 2 mps 609 mmHg 42%

    Day after tomorrow, 11 December, Wednesday

    Time Temperature Precipitation Wind Pressure Humidity
    00:00 -2°C° 0 mm 2 mps 608 mmHg 41%
    01:00 -2°C° 0 mm 2 mps 608 mmHg 42%
    02:00 -2°C° 0 mm 2 mps 608 mmHg 42%
    03:00 -2°C° 0 mm 2 mps 607 mmHg 43%
    04:00 -2°C° 0 mm 2 mps 607 mmHg 44%
    05:00 -2°C° 0 mm 2 mps 607 mmHg 46%
    06:00 -2°C° 0 mm 2 mps 607 mmHg 47%
    07:00 -2°C° 0 mm 2 mps 607 mmHg 53%
    08:00 -1°C° 0 mm 2 mps 608 mmHg 58%
    09:00 +1°C° 0 mm 2 mps 608 mmHg 64%
    10:00 +1°C° 0.1 mm 2 mps 609 mmHg 69%
    11:00 +2°C° 0.1 mm 2 mps 609 mmHg 74%
    12:00 +2°C° 0.1 mm 2 mps 609 mmHg 78%
    13:00 +1°C° 0.4 mm 2 mps 609 mmHg 81%
    14:00 0°C° 0.4 mm 3 mps 608 mmHg 83%
    15:00 -1°C° 0.4 mm 3 mps 608 mmHg 86%
    16:00 -4°C° 0.1 mm 3 mps 607 mmHg 87%
    17:00 -5°C° 0.1 mm 3 mps 607 mmHg 89%
    18:00 -7°C° 0.1 mm 3 mps 607 mmHg 91%
    19:00 -7°C° 0 mm 3 mps 607 mmHg 88%
    20:00 -8°C° 0 mm 3 mps 606 mmHg 86%
    21:00 -9°C° 0 mm 3 mps 606 mmHg 83%
    22:00 -7°C° 0.1 mm 2 mps 606 mmHg 84%
    23:00 -7°C° 0.1 mm 2 mps 606 mmHg 85%

    12 December, Thursday

    Time Temperature Precipitation Wind Pressure Humidity
    00:00 -6°C° 0.1 mm 2 mps 606 mmHg 86%
    01:00 -6°C° 0.4 mm 2 mps 606 mmHg 88%
    02:00 -6°C° 0.4 mm 2 mps 607 mmHg 89%
    03:00 -5°C° 0.4 mm 2 mps 607 mmHg 91%
    04:00 -5°C° 0.2 mm 2 mps 607 mmHg 91%
    05:00 -6°C° 0.2 mm 2 mps 606 mmHg 91%
    06:00 -6°C° 0.2 mm 2 mps 606 mmHg 91%
    07:00 -5°C° 0.2 mm 2 mps 607 mmHg 88%
    08:00 -2°C° 0.2 mm 1 mps 607 mmHg 85%
    09:00 -2°C° 0.2 mm 1 mps 608 mmHg 82%
    10:00 -1°C° 0 mm 1 mps 608 mmHg 78%
    11:00 +1°C° 0 mm 1 mps 608 mmHg 75%
    12:00 +2°C° 0 mm 1 mps 609 mmHg 72%
    13:00 +2°C° 0 mm 1 mps 608 mmHg 74%
    14:00 +1°C° 0 mm 1 mps 607 mmHg 76%
    15:00 +1°C° 0 mm 1 mps 607 mmHg 78%
    16:00 0°C° 0 mm 1 mps 606 mmHg 81%
    17:00 -2°C° 0 mm 1 mps 605 mmHg 85%
    18:00 -3°C° 0 mm 1 mps 604 mmHg 88%
    19:00 -5°C° 0.4 mm 2 mps 604 mmHg 89%
    20:00 -4°C° 0.4 mm 2 mps 604 mmHg 90%
    21:00 -4°C° 0.4 mm 2 mps 604 mmHg 91%
    22:00 -3°C° 1.1 mm 2 mps 603 mmHg 93%
    23:00 0°C° 1.1 mm 1 mps 603 mmHg 94%

    13 December, Friday

    Time Temperature Precipitation Wind Pressure Humidity
    00:00 +1°C° 1.1 mm 1 mps 603 mmHg 96%
    01:00 +1°C° 0.7 mm 1 mps 603 mmHg 96%
    02:00 +1°C° 0.7 mm 1 mps 603 mmHg 96%
    03:00 +2°C° 0.7 mm 1 mps 603 mmHg 97%
    04:00 +1°C° 1 mm 2 mps 602 mmHg 97%
    05:00 +1°C° 1 mm 2 mps 602 mmHg 97%
    06:00 +1°C° 1 mm 2 mps 602 mmHg 97%
    07:00 +2°C° 1.3 mm 2 mps 603 mmHg 96%
    08:00 +2°C° 1.3 mm 2 mps 603 mmHg 96%
    09:00 +2°C° 1.3 mm 2 mps 603 mmHg 95%
    10:00 +1°C° 1.2 mm 3 mps 603 mmHg 94%
    11:00 +1°C° 1.2 mm 3 mps 604 mmHg 92%
    12:00 +2°C° 1.2 mm 3 mps 604 mmHg 91%
    13:00 +3°C° 0.6 mm 2 mps 604 mmHg 92%
    14:00 +3°C° 0.6 mm 2 mps 604 mmHg 93%
    15:00 +2°C° 0.6 mm 2 mps 604 mmHg 94%
    16:00 +2°C° 0.4 mm 2 mps 604 mmHg 95%
    17:00 +2°C° 0.4 mm 2 mps 604 mmHg 96%
    18:00 0°C° 0.4 mm 3 mps 604 mmHg 96%
    19:00 0°C° 0 mm 3 mps 605 mmHg 96%
    20:00 +1°C° 0 mm 2 mps 605 mmHg 96%
    21:00 -1°C° 0 mm 2 mps 605 mmHg 95%
    22:00 +1°C° 0 mm 2 mps 605 mmHg 95%
    23:00 +1°C° 0 mm 2 mps 605 mmHg 95%

    14 December, Saturday

    Time Temperature Precipitation Wind Pressure Humidity
    00:00 +1°C° 0 mm 2 mps 606 mmHg 94%
    01:00 -1°C° 0 mm 2 mps 606 mmHg 93%
    02:00 -1°C° 0 mm 2 mps 606 mmHg 92%
    03:00 -2°C° 0 mm 3 mps 606 mmHg 91%
    04:00 -1°C° 0 mm 2 mps 606 mmHg 90%
    05:00 -1°C° 0 mm 2 mps 606 mmHg 89%
    06:00 -1°C° 0 mm 2 mps 607 mmHg 88%
    07:00 +1°C° 0 mm 2 mps 608 mmHg 88%
    08:00 +2°C° 0 mm 2 mps 608 mmHg 88%
    09:00 +4°C° 0 mm 1 mps 609 mmHg 88%
    10:00 +5°C° 0 mm 1 mps 610 mmHg 86%
    11:00 +6°C° 0 mm 1 mps 610 mmHg 84%
    12:00 +7°C° 0 mm 1 mps 611 mmHg 81%
    13:00 +6°C° 0 mm 1 mps 610 mmHg 83%
    14:00 +6°C° 0 mm 1 mps 610 mmHg 85%
    15:00 +5°C° 0 mm 1 mps 610 mmHg 87%
    16:00 +4°C° 0 mm 1 mps 609 mmHg 89%
    17:00 +3°C° 0 mm 1 mps 609 mmHg 91%
    18:00 +2°C° 0 mm 1 mps 608 mmHg 93%
    19:00 +1°C° 0 mm 1 mps 608 mmHg 89%
    20:00 +1°C° 0 mm 1 mps 608 mmHg 85%
    21:00 +1°C° 0 mm 1 mps 609 mmHg 82%
    22:00 0°C° 0 mm 1 mps 608 mmHg 80%
    23:00 0°C° 0 mm 1 mps 608 mmHg 78%
    Show more